Time,TemperatureF,DewpointF,PressureIn,WindDirection,WindDirectionDegrees,WindSpeedMPH,WindSpeedGustMPH,Humidity,HourlyPrecipIn,Conditions,Clouds,dailyrainin,SoftwareType,DateUTC
2013-03-10 00:00:00,57.2,50.4,30.21,East,90,0.0,0.0,78,0.00,,,0.00,WeatherCatV1.14B232,2013-03-10 05:00:00,
2013-03-10 00:01:00,57.2,50.4,30.21,East,90,0.0,0.0,78,0.00,,,0.00,WeatherCatV1.14B232,2013-03-10 05:01:00,
2013-03-10 00:06:00,57.2,50.4,30.21,South,180,0.0,0.0,78,0.00,,,0.00,WeatherCatV1.14B232,2013-03-10 05:06:00,
2013-03-10 00:11:00,57.4,50.5,30.22,ENE,67,0.7,0.7,78,0.00,,,0.00,WeatherCatV1.14B232,2013-03-10 05:11:00,
2013-03-10 00:16:00,57.2,50.4,30.21,SE,135,0.0,0.0,78,0.00,,,0.00,WeatherCatV1.14B232,2013-03-10 05:16:00,
2013-03-10 00:21:00,57.2,50.4,30.21,ESE,112,0.0,0.0,78,0.00,,,0.00,WeatherCatV1.14B232,2013-03-10 05:21:00,
2013-03-10 00:26:00,57.2,50.4,30.21,ENE,67,0.0,0.0,78,0.00,,,0.00,WeatherCatV1.14B232,2013-03-10 05:26:00,
2013-03-10 00:31:00,57.0,50.2,30.21,ESE,112,0.0,0.0,78,0.00,,,0.00,WeatherCatV1.14B232,2013-03-10 05:31:00,
2013-03-10 00:36:00,57.0,50.2,30.21,SSW,202,0.0,0.0,78,0.00,,,0.00,WeatherCatV1.14B232,2013-03-10 05:36:00,
2013-03-10 00:41:00,57.0,50.2,30.21,SSE,157,0.0,0.0,78,0.00,,,0.00,WeatherCatV1.14B232,2013-03-10 05:41:00,
2013-03-10 00:46:00,57.0,50.2,30.21,SSE,157,0.0,0.0,78,0.00,,,0.00,WeatherCatV1.14B232,2013-03-10 05:46:00,
2013-03-10 00:51:00,57.0,50.2,30.20,SE,135,0.0,0.0,78,0.00,,,0.00,WeatherCatV1.14B232,2013-03-10 05:51:00,
2013-03-10 00:56:00,57.0,50.2,30.20,SE,135,0.0,0.0,78,0.00,,,0.00,WeatherCatV1.14B232,2013-03-10 05:56:00,
2013-03-10 01:07:00,57.0,-99.9,30.21,SE,135,0.0,0.0,78,0.00,,,0.00,WeatherCatV1.14B232,2013-03-10 06:07:00,
2013-03-10 01:12:00,57.0,50.5,30.20,SSE,157,0.0,0.0,79,0.00,,,0.00,WeatherCatV1.14B232,2013-03-10 06:12:00,
2013-03-10 01:17:00,57.0,50.5,30.20,SSE,157,0.0,0.0,79,0.00,,,0.00,WeatherCatV1.14B232,2013-03-10 06:17:00,
2013-03-10 01:22:00,57.0,50.5,30.20,SE,135,0.0,0.0,79,0.00,,,0.00,WeatherCatV1.14B232,2013-03-10 06:22:00,
2013-03-10 01:27:00,57.0,50.9,30.19,South,180,0.0,0.0,80,0.00,,,0.00,WeatherCatV1.14B232,2013-03-10 06:27:00,
2013-03-10 01:32:00,57.0,50.9,30.19,SSE,157,0.0,0.0,80,0.00,,,0.00,WeatherCatV1.14B232,2013-03-10 06:32:00,
2013-03-10 01:37:00,56.8,50.7,30.19,ESE,112,0.0,0.0,80,0.00,,,0.00,WeatherCatV1.14B232,2013-03-10 06:37:00,
2013-03-10 01:42:00,56.8,50.7,30.19,ESE,112,0.0,0.0,80,0.00,,,0.00,WeatherCatV1.14B232,2013-03-10 06:42:00,
2013-03-10 01:47:00,57.0,50.9,30.19,SSW,202,0.0,0.0,80,0.00,,,0.00,WeatherCatV1.14B232,2013-03-10 06:47:00,
2013-03-10 01:52:00,57.0,50.9,30.19,SSE,157,0.0,0.0,80,0.00,,,0.00,WeatherCatV1.14B232,2013-03-10 06:52:00,
2013-03-10 01:57:00,57.0,50.9,30.19,SSE,157,0.0,0.0,80,0.00,,,0.00,WeatherCatV1.14B232,2013-03-10 06:57:00,
2013-03-10 03:02:00,57.0,50.9,30.18,South,180,0.0,0.0,80,0.00,,,0.00,WeatherCatV1.14B232,2013-03-10 07:02:00,
2013-03-10 03:07:00,56.8,50.7,30.18,SSW,202,0.0,0.0,80,0.00,,,0.00,WeatherCatV1.14B232,2013-03-10 07:07:00,
2013-03-10 03:12:00,56.8,50.7,30.18,SSW,202,0.0,0.0,80,0.00,,,0.00,WeatherCatV1.14B232,2013-03-10 07:12:00,
2013-03-10 03:17:00,56.8,50.7,30.17,SSW,202,0.0,0.0,80,0.00,,,0.00,WeatherCatV1.14B232,2013-03-10 07:17:00,
2013-03-10 03:22:00,56.8,51.0,30.17,SSE,157,0.0,0.0,81,0.00,,,0.00,WeatherCatV1.14B232,2013-03-10 07:22:00,
2013-03-10 03:27:00,56.8,51.0,30.17,SSE,157,0.0,0.0,81,0.00,,,0.00,WeatherCatV1.14B232,2013-03-10 07:27:00,
2013-03-10 03:32:00,56.8,51.0,30.17,South,180,0.0,0.0,81,0.00,,,0.00,WeatherCatV1.14B232,2013-03-10 07:32:00,
2013-03-10 03:37:00,56.8,51.4,30.16,ESE,112,0.0,0.0,82,0.00,,,0.00,WeatherCatV1.14B232,2013-03-10 07:37:00,
2013-03-10 03:42:00,56.8,51.4,30.17,ESE,112,0.0,0.0,82,0.00,,,0.00,WeatherCatV1.14B232,2013-03-10 07:42:00,
2013-03-10 03:47:00,56.8,51.4,30.17,East,90,1.3,1.3,82,0.00,,,0.00,WeatherCatV1.14B232,2013-03-10 07:47:00,
2013-03-10 03:52:00,56.8,51.4,30.16,ESE,112,0.0,0.0,82,0.00,,,0.00,WeatherCatV1.14B232,2013-03-10 07:52:00,
2013-03-10 03:57:00,56.8,51.4,30.17,ESE,112,0.0,0.0,82,0.00,,,0.00,WeatherCatV1.14B232,2013-03-10 07:57:00,
2013-03-10 04:01:00,56.8,51.4,30.17,ESE,112,0.0,0.0,82,0.00,,,0.00,WeatherCatV1.14B232,2013-03-10 08:01:00,
2013-03-10 04:06:00,56.7,51.2,30.16,ESE,112,0.0,0.0,82,0.00,,,0.00,WeatherCatV1.14B232,2013-03-10 08:06:00,
2013-03-10 04:11:00,56.5,51.0,30.16,ESE,112,0.0,0.0,82,0.00,,,0.00,WeatherCatV1.14B232,2013-03-10 08:11:00,
2013-03-10 04:16:00,56.5,51.0,30.16,ESE,112,0.0,0.0,82,0.00,,,0.00,WeatherCatV1.14B232,2013-03-10 08:16:00,
2013-03-10 04:21:00,56.5,51.0,30.16,East,90,0.0,0.0,82,0.00,,,0.00,WeatherCatV1.14B232,2013-03-10 08:21:00,
2013-03-10 04:26:00,56.3,50.8,30.16,East,90,0.0,0.0,82,0.00,,,0.00,WeatherCatV1.14B232,2013-03-10 08:26:00,
2013-03-10 04:31:00,56.3,50.8,30.16,North,0,0.0,0.0,82,0.00,,,0.00,WeatherCatV1.14B232,2013-03-10 08:31:00,
2013-03-10 04:36:00,56.1,50.6,30.16,North,0,0.0,0.0,82,0.00,,,0.00,WeatherCatV1.14B232,2013-03-10 08:36:00,
2013-03-10 04:41:00,56.1,50.6,30.15,WNW,292,0.0,0.0,82,0.00,,,0.00,WeatherCatV1.14B232,2013-03-10 08:41:00,
2013-03-10 04:46:00,55.9,50.5,30.16,WNW,292,0.0,0.0,82,0.00,,,0.00,WeatherCatV1.14B232,2013-03-10 08:46:00,
2013-03-10 04:51:00,55.9,50.5,30.16,NW,315,0.0,0.0,82,0.00,,,0.00,WeatherCatV1.14B232,2013-03-10 08:51:00,
2013-03-10 04:56:00,55.8,50.3,30.16,WNW,292,0.0,0.0,82,0.00,,,0.00,WeatherCatV1.14B232,2013-03-10 08:56:00,
2013-03-10 05:01:00,55.8,50.3,30.16,WNW,292,0.0,0.0,82,0.00,,,0.00,WeatherCatV1.14B232,2013-03-10 09:01:00,
2013-03-10 05:06:00,55.6,50.1,30.17,WNW,292,0.0,0.0,82,0.00,,,0.00,WeatherCatV1.14B232,2013-03-10 09:06:00,
2013-03-10 05:11:00,55.6,50.1,30.16,NW,315,0.0,0.0,82,0.00,,,0.00,WeatherCatV1.14B232,2013-03-10 09:11:00,
2013-03-10 05:16:00,55.6,50.1,30.17,NNW,337,0.0,0.0,82,0.00,,,0.00,WeatherCatV1.14B232,2013-03-10 09:16:00,
2013-03-10 05:21:00,55.4,49.9,30.16,ESE,112,0.0,0.0,82,0.00,,,0.00,WeatherCatV1.14B232,2013-03-10 09:21:00,
2013-03-10 05:26:00,55.2,49.7,30.16,East,90,0.0,0.0,82,0.00,,,0.00,WeatherCatV1.14B232,2013-03-10 09:26:00,
2013-03-10 05:31:00,55.2,49.7,30.15,East,90,0.0,0.0,82,0.00,,,0.00,WeatherCatV1.14B232,2013-03-10 09:31:00,
2013-03-10 05:36:00,55.2,49.7,30.16,East,90,0.0,0.0,82,0.00,,,0.00,WeatherCatV1.14B232,2013-03-10 09:36:00,
2013-03-10 05:41:00,55.2,49.7,30.15,NE,45,0.0,0.0,82,0.00,,,0.00,WeatherCatV1.14B232,2013-03-10 09:41:00,
2013-03-10 05:46:00,55.0,49.6,30.16,ENE,67,0.0,0.0,82,0.00,,,0.00,WeatherCatV1.14B232,2013-03-10 09:46:00,
2013-03-10 05:51:00,55.0,49.6,30.16,East,90,0.0,0.0,82,0.00,,,0.00,WeatherCatV1.14B232,2013-03-10 09:51:00,
2013-03-10 05:56:00,55.0,49.9,30.15,SE,135,0.0,0.0,83,0.00,,,0.00,WeatherCatV1.14B232,2013-03-10 09:56:00,
2013-03-10 06:01:00,54.9,49.7,30.15,SSW,202,0.0,0.0,83,0.00,,,0.00,WeatherCatV1.14B232,2013-03-10 10:01:00,
2013-03-10 06:06:00,54.9,49.7,30.16,NNW,337,0.0,0.0,83,0.00,,,0.00,WeatherCatV1.14B232,2013-03-10 10:06:00,
2013-03-10 06:11:00,54.9,49.7,30.16,North,0,0.0,0.0,83,0.00,,,0.00,WeatherCatV1.14B232,2013-03-10 10:11:00,
2013-03-10 06:16:00,55.0,49.9,30.16,NW,315,0.0,0.0,83,0.00,,,0.00,WeatherCatV1.14B232,2013-03-10 10:16:00,
2013-03-10 06:21:00,55.0,49.9,30.17,NNW,337,0.0,0.0,83,0.00,,,0.00,WeatherCatV1.14B232,2013-03-10 10:21:00,
2013-03-10 06:26:00,55.0,49.9,30.16,NNW,337,0.0,0.0,83,0.00,,,0.00,WeatherCatV1.14B232,2013-03-10 10:26:00,
2013-03-10 06:31:00,55.0,49.9,30.17,NNW,337,0.0,0.0,83,0.00,,,0.00,WeatherCatV1.14B232,2013-03-10 10:31:00,
2013-03-10 06:36:00,55.0,49.9,30.17,NNW,337,0.0,0.0,83,0.00,,,0.00,WeatherCatV1.14B232,2013-03-10 10:36:00,
2013-03-10 06:41:00,54.9,49.7,30.17,North,0,0.0,0.0,83,0.00,,,0.00,WeatherCatV1.14B232,2013-03-10 10:41:00,
2013-03-10 06:46:00,54.9,49.7,30.17,NE,45,0.0,0.0,83,0.00,,,0.00,WeatherCatV1.14B232,2013-03-10 10:46:00,
2013-03-10 06:51:00,54.9,49.7,30.17,NNE,22,0.0,0.0,83,0.00,,,0.00,WeatherCatV1.14B232,2013-03-10 10:51:00,
2013-03-10 06:56:00,54.7,49.6,30.17,NNE,22,0.0,0.0,83,0.00,,,0.00,WeatherCatV1.14B232,2013-03-10 10:56:00,
2013-03-10 07:01:00,54.7,49.6,30.17,North,0,0.0,0.0,83,0.00,,,0.00,WeatherCatV1.14B232,2013-03-10 11:01:00,
2013-03-10 07:06:00,54.7,49.6,30.18,NNW,337,0.0,0.0,83,0.00,,,0.00,WeatherCatV1.14B232,2013-03-10 11:06:00,
2013-03-10 07:11:00,54.5,49.7,30.18,NW,315,0.0,0.0,84,0.00,,,0.00,WeatherCatV1.14B232,2013-03-10 11:11:00,
2013-03-10 07:16:00,54.5,49.7,30.17,NW,315,0.0,0.0,84,0.00,,,0.00,WeatherCatV1.14B232,2013-03-10 11:16:00,
2013-03-10 07:21:00,54.3,49.5,30.18,WNW,292,0.0,0.0,84,0.00,,,0.00,WeatherCatV1.14B232,2013-03-10 11:21:00,
2013-03-10 07:26:00,54.3,49.5,30.17,WNW,292,0.0,0.0,84,0.00,,,0.00,WeatherCatV1.14B232,2013-03-10 11:26:00,
2013-03-10 07:31:00,54.3,49.5,30.17,WNW,292,0.0,0.0,84,0.00,,,0.00,WeatherCatV1.14B232,2013-03-10 11:31:00,
2013-03-10 07:36:00,54.3,49.5,30.18,WNW,292,0.0,0.0,84,0.00,,,0.00,WeatherCatV1.14B232,2013-03-10 11:36:00,
2013-03-10 07:41:00,54.3,49.5,30.18,WNW,292,0.0,0.0,84,0.00,,,0.00,WeatherCatV1.14B232,2013-03-10 11:41:00,
2013-03-10 07:46:00,54.3,49.5,30.17,WNW,292,0.0,0.0,84,0.00,,,0.00,WeatherCatV1.14B232,2013-03-10 11:46:00,
2013-03-10 07:51:00,54.3,49.5,30.17,WNW,292,0.0,0.0,84,0.00,,,0.00,WeatherCatV1.14B232,2013-03-10 11:51:00,
2013-03-10 07:56:00,54.3,49.5,30.18,WNW,292,0.0,0.0,84,0.00,,,0.00,WeatherCatV1.14B232,2013-03-10 11:56:00,
2013-03-10 08:01:00,54.3,49.5,30.19,WNW,292,0.0,0.0,84,0.00,,,0.00,WeatherCatV1.14B232,2013-03-10 12:01:00,
2013-03-10 08:06:00,54.3,49.5,30.19,WNW,292,0.0,0.0,84,0.00,,,0.00,WeatherCatV1.14B232,2013-03-10 12:06:00,
2013-03-10 08:11:00,54.3,49.5,30.19,WNW,292,0.0,0.0,84,0.00,,,0.00,WeatherCatV1.14B232,2013-03-10 12:11:00,
2013-03-10 08:16:00,54.3,49.5,30.19,WNW,292,0.0,0.0,84,0.00,,,0.00,WeatherCatV1.14B232,2013-03-10 12:16:00,
2013-03-10 08:21:00,54.3,49.5,30.19,NW,315,0.0,0.0,84,0.00,,,0.00,WeatherCatV1.14B232,2013-03-10 12:21:00,
2013-03-10 08:26:00,54.5,49.7,30.21,WNW,292,0.0,0.0,84,0.00,,,0.00,WeatherCatV1.14B232,2013-03-10 12:26:00,
2013-03-10 08:31:00,54.5,49.7,30.21,WNW,292,0.0,0.0,84,0.00,,,0.00,WeatherCatV1.14B232,2013-03-10 12:31:00,
2013-03-10 08:36:00,54.7,49.9,30.21,WNW,292,0.0,0.0,84,0.00,,,0.00,WeatherCatV1.14B232,2013-03-10 12:36:00,
2013-03-10 08:41:00,54.7,49.9,30.21,WNW,292,0.0,0.0,84,0.00,,,0.00,WeatherCatV1.14B232,2013-03-10 12:41:00,
2013-03-10 08:46:00,54.9,50.1,30.21,NW,315,0.0,0.0,84,0.00,,,0.00,WeatherCatV1.14B232,2013-03-10 12:46:00,
2013-03-10 08:51:00,55.0,50.2,30.22,NNW,337,0.0,0.0,84,0.00,,,0.00,WeatherCatV1.14B232,2013-03-10 12:51:00,
2013-03-10 08:56:00,55.2,50.4,30.21,NNW,337,0.0,0.0,84,0.00,,,0.00,WeatherCatV1.14B232,2013-03-10 12:56:00,
2013-03-10 09:01:00,55.2,50.4,30.22,NNW,337,0.0,0.0,84,0.00,,,0.00,WeatherCatV1.14B232,2013-03-10 13:01:00,
2013-03-10 09:06:00,55.6,50.9,30.21,NNE,22,0.0,0.0,84,0.00,,,0.00,WeatherCatV1.14B232,2013-03-10 13:06:00,
2013-03-10 09:11:00,56.1,51.6,30.22,West,270,0.0,0.0,85,0.00,,,0.00,WeatherCatV1.14B232,2013-03-10 13:11:00,
2013-03-10 09:16:00,56.5,52.0,30.22,NNW,337,2.0,2.0,85,0.00,,,0.00,WeatherCatV1.14B232,2013-03-10 13:16:00,
2013-03-10 09:21:00,57.0,52.5,30.22,North,0,1.3,1.3,85,0.00,,,0.00,WeatherCatV1.14B232,2013-03-10 13:21:00,
2013-03-10 09:26:00,57.4,52.9,30.22,NE,45,0.0,1.3,85,0.00,,,0.00,WeatherCatV1.14B232,2013-03-10 13:26:00,
2013-03-10 09:31:00,57.7,53.6,30.21,North,0,2.0,2.0,86,0.00,,,0.00,WeatherCatV1.14B232,2013-03-10 13:31:00,
2013-03-10 09:36:00,58.3,54.1,30.21,NNE,22,1.3,2.0,86,0.00,,,0.00,WeatherCatV1.14B232,2013-03-10 13:36:00,
2013-03-10 09:41:00,58.8,55.0,30.21,ENE,67,1.1,3.1,87,0.00,,,0.00,WeatherCatV1.14B232,2013-03-10 13:41:00,
2013-03-10 09:46:00,59.2,55.3,30.21,ENE,67,3.4,3.4,87,0.00,,,0.00,WeatherCatV1.14B232,2013-03-10 13:46:00,
2013-03-10 09:51:00,59.7,55.9,30.21,East,90,0.0,0.0,87,0.00,,,0.00,WeatherCatV1.14B232,2013-03-10 13:51:00,
2013-03-10 09:56:00,60.1,56.2,30.21,North,0,4.2,4.2,87,0.00,,,0.00,WeatherCatV1.14B232,2013-03-10 13:56:00,
2013-03-10 10:01:00,60.4,56.6,30.21,ENE,67,0.0,0.0,87,0.00,,,0.00,WeatherCatV1.14B232,2013-03-10 14:01:00,
2013-03-10 10:06:00,61.0,56.8,30.21,NE,45,2.9,2.9,86,0.00,,,0.00,WeatherCatV1.14B232,2013-03-10 14:06:00,
2013-03-10 10:11:00,61.3,57.1,30.21,NE,45,2.0,2.0,86,0.00,,,0.00,WeatherCatV1.14B232,2013-03-10 14:11:00,
2013-03-10 10:16:00,61.7,57.1,30.21,NE,45,2.0,2.0,85,0.00,,,0.00,WeatherCatV1.14B232,2013-03-10 14:16:00,
2013-03-10 10:21:00,62.4,57.8,30.22,ENE,67,0.0,1.6,85,0.00,,,0.00,WeatherCatV1.14B232,2013-03-10 14:21:00,
2013-03-10 10:26:00,62.8,57.8,30.22,ESE,112,0.0,0.0,84,0.00,,,0.00,WeatherCatV1.14B232,2013-03-10 14:26:00,
2013-03-10 10:31:00,63.1,57.9,30.22,ESE,112,0.0,0.0,83,0.00,,,0.00,WeatherCatV1.14B232,2013-03-10 14:31:00,
2013-03-10 10:36:00,63.5,58.2,30.22,NE,45,0.9,1.3,83,0.00,,,0.00,WeatherCatV1.14B232,2013-03-10 14:36:00,
2013-03-10 10:41:00,63.7,58.1,30.22,ESE,112,1.3,2.7,82,0.00,,,0.00,WeatherCatV1.14B232,2013-03-10 14:41:00,
2013-03-10 10:46:00,64.0,58.4,30.21,NE,45,1.1,1.1,82,0.00,,,0.00,WeatherCatV1.14B232,2013-03-10 14:46:00,
2013-03-10 10:51:00,64.6,58.6,30.21,ENE,67,4.9,4.9,81,0.00,,,0.00,WeatherCatV1.14B232,2013-03-10 14:51:00,
2013-03-10 10:56:00,64.9,58.6,30.20,NE,45,3.1,3.1,80,0.00,,,0.00,WeatherCatV1.14B232,2013-03-10 14:56:00,
2013-03-10 11:01:00,65.1,58.8,30.20,East,90,2.9,2.9,80,0.00,,,0.00,WeatherCatV1.14B232,2013-03-10 15:01:00,
2013-03-10 11:06:00,65.3,58.6,30.20,ENE,67,1.6,1.6,79,0.00,,,0.00,WeatherCatV1.14B232,2013-03-10 15:06:00,
2013-03-10 11:11:00,65.5,58.8,30.19,East,90,0.9,0.9,79,0.00,,,0.00,WeatherCatV1.14B232,2013-03-10 15:11:00,
2013-03-10 11:16:00,65.8,59.2,30.19,East,90,1.8,1.8,79,0.00,,,0.00,WeatherCatV1.14B232,2013-03-10 15:16:00,
2013-03-10 11:21:00,66.2,59.1,30.19,ENE,67,3.6,3.6,78,0.00,,,0.00,WeatherCatV1.14B232,2013-03-10 15:21:00,
2013-03-10 11:26:00,66.2,59.1,30.19,NE,45,0.0,0.0,78,0.00,,,0.00,WeatherCatV1.14B232,2013-03-10 15:26:00,
2013-03-10 11:31:00,66.4,59.3,30.19,North,0,1.3,1.3,78,0.00,,,0.00,WeatherCatV1.14B232,2013-03-10 15:31:00,
2013-03-10 11:36:00,66.6,59.5,30.19,ESE,112,0.9,1.3,78,0.00,,,0.00,WeatherCatV1.14B232,2013-03-10 15:36:00,
2013-03-10 11:41:00,66.7,59.3,30.19,NE,45,0.0,0.0,77,0.00,,,0.00,WeatherCatV1.14B232,2013-03-10 15:41:00,
2013-03-10 11:46:00,66.9,59.5,30.19,East,90,1.1,1.1,77,0.00,,,0.00,WeatherCatV1.14B232,2013-03-10 15:46:00,
2013-03-10 11:51:00,67.3,59.5,30.20,SE,135,0.0,2.2,76,0.00,,,0.00,WeatherCatV1.14B232,2013-03-10 15:51:00,
2013-03-10 11:56:00,67.3,59.1,30.19,South,180,0.0,0.0,75,0.00,,,0.00,WeatherCatV1.14B232,2013-03-10 15:56:00,
2013-03-10 12:01:00,67.8,59.6,30.19,South,180,0.0,0.0,75,0.00,,,0.00,WeatherCatV1.14B232,2013-03-10 16:01:00,
2013-03-10 12:06:00,68.2,59.6,30.19,NNW,337,1.6,1.6,74,0.00,,,0.00,WeatherCatV1.14B232,2013-03-10 16:06:00,
2013-03-10 12:11:00,68.4,59.8,30.19,ENE,67,3.4,3.4,74,0.00,,,0.00,WeatherCatV1.14B232,2013-03-10 16:11:00,
2013-03-10 12:16:00,68.5,59.9,30.18,ENE,67,0.9,0.9,74,0.00,,,0.00,WeatherCatV1.14B232,2013-03-10 16:16:00,
2013-03-10 12:21:00,69.1,60.0,30.18,SE,135,0.0,0.0,73,0.00,,,0.00,WeatherCatV1.14B232,2013-03-10 16:21:00,
2013-03-10 12:26:00,69.4,60.3,30.18,SE,135,0.0,0.0,73,0.00,,,0.00,WeatherCatV1.14B232,2013-03-10 16:26:00,
2013-03-10 12:31:00,69.6,60.5,30.18,NE,45,0.9,0.9,73,0.00,,,0.00,WeatherCatV1.14B232,2013-03-10 16:31:00,
2013-03-10 12:36:00,70.2,61.0,30.18,SE,135,0.0,0.0,73,0.00,,,0.00,WeatherCatV1.14B232,2013-03-10 16:36:00,
2013-03-10 12:41:00,70.5,61.0,30.18,ESE,112,0.0,0.0,72,0.00,,,0.00,WeatherCatV1.14B232,2013-03-10 16:41:00,
2013-03-10 12:47:00,70.9,61.4,30.17,SE,135,1.6,1.6,72,0.00,,,0.00,WeatherCatV1.14B232,2013-03-10 16:47:00,
2013-03-10 12:52:00,71.4,61.2,30.18,SE,135,0.7,0.7,70,0.00,,,0.00,WeatherCatV1.14B232,2013-03-10 16:52:00,
2013-03-10 12:57:00,71.8,61.5,30.17,ESE,112,1.6,1.6,70,0.00,,,0.00,WeatherCatV1.14B232,2013-03-10 16:57:00,
2013-03-10 13:02:00,72.0,61.2,30.17,ESE,112,0.0,0.0,69,0.00,,,0.00,WeatherCatV1.14B232,2013-03-10 17:02:00,
2013-03-10 13:07:00,72.5,61.8,30.16,South,180,0.0,2.0,69,0.00,,,0.00,WeatherCatV1.14B232,2013-03-10 17:07:00,
2013-03-10 13:12:00,72.9,62.2,30.16,ESE,112,1.3,1.3,69,0.00,,,0.00,WeatherCatV1.14B232,2013-03-10 17:12:00,
2013-03-10 13:17:00,73.0,61.9,30.15,SE,135,0.0,0.0,68,0.00,,,0.00,WeatherCatV1.14B232,2013-03-10 17:17:00,
2013-03-10 13:22:00,73.2,61.2,30.15,SE,135,1.1,1.1,66,0.00,,,0.00,WeatherCatV1.14B232,2013-03-10 17:22:00,
2013-03-10 13:27:00,73.2,61.2,30.16,South,180,2.5,2.5,66,0.00,,,0.00,WeatherCatV1.14B232,2013-03-10 17:27:00,
2013-03-10 13:32:00,73.2,60.7,30.16,SE,135,1.6,1.6,65,0.00,,,0.00,WeatherCatV1.14B232,2013-03-10 17:32:00,
2013-03-10 13:37:00,73.0,60.1,30.16,SE,135,2.7,2.7,64,0.00,,,0.00,WeatherCatV1.14B232,2013-03-10 17:37:00,
2013-03-10 13:42:00,72.9,59.9,30.15,SE,135,2.5,2.5,64,0.00,,,0.00,WeatherCatV1.14B232,2013-03-10 17:42:00,
2013-03-10 13:47:00,72.7,60.2,30.15,SE,135,1.6,1.6,65,0.00,,,0.00,WeatherCatV1.14B232,2013-03-10 17:47:00,
2013-03-10 13:52:00,72.7,59.8,30.15,SW,225,0.7,2.7,64,0.00,,,0.00,WeatherCatV1.14B232,2013-03-10 17:52:00,
2013-03-10 13:57:00,72.3,59.4,30.15,SE,135,2.5,2.5,64,0.00,,,0.00,WeatherCatV1.14B232,2013-03-10 17:57:00,
2013-03-10 14:02:00,72.3,59.4,30.15,SE,135,2.0,2.0,64,0.00,,,0.00,WeatherCatV1.14B232,2013-03-10 18:02:00,
2013-03-10 14:07:00,72.3,59.9,30.15,SE,135,1.6,1.6,65,0.00,,,0.00,WeatherCatV1.14B232,2013-03-10 18:07:00,
2013-03-10 14:12:00,72.3,59.9,30.15,SSE,157,1.1,1.1,65,0.00,,,0.00,WeatherCatV1.14B232,2013-03-10 18:12:00,
2013-03-10 14:17:00,72.5,60.0,30.15,SE,135,1.3,1.3,65,0.00,,,0.00,WeatherCatV1.14B232,2013-03-10 18:17:00,
2013-03-10 14:22:00,72.7,59.8,30.15,SSE,157,0.0,1.6,64,0.00,,,0.00,WeatherCatV1.14B232,2013-03-10 18:22:00,
2013-03-10 14:27:00,72.7,59.8,30.15,SE,135,2.0,2.0,64,0.00,,,0.00,WeatherCatV1.14B232,2013-03-10 18:27:00,
2013-03-10 14:32:00,72.5,59.6,30.15,SSE,157,2.0,2.0,64,0.00,,,0.00,WeatherCatV1.14B232,2013-03-10 18:32:00,
2013-03-10 14:37:00,72.3,59.0,30.15,SE,135,3.4,3.4,63,0.00,,,0.00,WeatherCatV1.14B232,2013-03-10 18:37:00,
2013-03-10 14:42:00,72.0,58.6,30.15,SSE,157,2.2,2.2,63,0.00,,,0.00,WeatherCatV1.14B232,2013-03-10 18:42:00,
2013-03-10 14:47:00,71.8,58.5,30.15,SSE,157,2.9,2.9,63,0.00,,,0.00,WeatherCatV1.14B232,2013-03-10 18:47:00,
2013-03-10 14:52:00,71.8,58.5,30.15,SE,135,2.9,2.9,63,0.00,,,0.00,WeatherCatV1.14B232,2013-03-10 18:52:00,
2013-03-10 14:57:00,71.8,58.0,30.14,SE,135,0.0,0.0,62,0.00,,,0.00,WeatherCatV1.14B232,2013-03-10 18:57:00,
2013-03-10 15:02:00,72.0,58.2,30.14,SSE,157,0.9,0.9,62,0.00,,,0.00,WeatherCatV1.14B232,2013-03-10 19:02:00,
2013-03-10 15:07:00,72.3,58.5,30.14,SE,135,1.6,2.9,62,0.00,,,0.00,WeatherCatV1.14B232,2013-03-10 19:07:00,
2013-03-10 15:12:00,72.3,58.5,30.15,SSE,157,1.6,1.6,62,0.00,,,0.00,WeatherCatV1.14B232,2013-03-10 19:12:00,
2013-03-10 15:17:00,72.3,58.5,30.15,SE,135,0.0,0.0,62,0.00,,,0.00,WeatherCatV1.14B232,2013-03-10 19:17:00,
2013-03-10 15:22:00,72.3,58.5,30.15,SSE,157,3.1,3.1,62,0.00,,,0.00,WeatherCatV1.14B232,2013-03-10 19:22:00,
2013-03-10 15:27:00,72.3,58.5,30.15,SE,135,1.3,1.3,62,0.00,,,0.00,WeatherCatV1.14B232,2013-03-10 19:27:00,
2013-03-10 15:32:00,72.3,58.1,30.15,SE,135,1.1,1.1,61,0.00,,,0.00,WeatherCatV1.14B232,2013-03-10 19:32:00,
2013-03-10 15:37:00,72.1,57.9,30.15,SE,135,0.9,2.0,61,0.00,,,0.00,WeatherCatV1.14B232,2013-03-10 19:37:00,
2013-03-10 15:42:00,72.3,58.5,30.15,ESE,112,0.0,0.0,62,0.00,,,0.00,WeatherCatV1.14B232,2013-03-10 19:42:00,
2013-03-10 15:47:00,72.3,58.1,30.14,SE,135,1.1,1.1,61,0.00,,,0.00,WeatherCatV1.14B232,2013-03-10 19:47:00,
2013-03-10 15:52:00,72.3,58.5,30.14,South,180,0.0,1.3,62,0.00,,,0.00,WeatherCatV1.14B232,2013-03-10 19:52:00,
2013-03-10 15:57:00,72.3,58.5,30.15,SSE,157,2.5,2.5,62,0.00,,,0.00,WeatherCatV1.14B232,2013-03-10 19:57:00,
2013-03-10 16:02:00,72.3,58.5,30.15,SSE,157,2.2,2.2,62,0.00,,,0.00,WeatherCatV1.14B232,2013-03-10 20:02:00,
2013-03-10 16:07:00,72.1,57.9,30.15,SE,135,0.0,0.7,61,0.00,,,0.00,WeatherCatV1.14B232,2013-03-10 20:07:00,
2013-03-10 16:12:00,71.8,58.0,30.15,SE,135,0.0,0.0,62,0.00,,,0.00,WeatherCatV1.14B232,2013-03-10 20:12:00,
2013-03-10 16:17:00,71.8,57.6,30.15,SE,135,0.0,0.0,61,0.00,,,0.00,WeatherCatV1.14B232,2013-03-10 20:17:00,
2013-03-10 16:22:00,71.6,57.9,30.15,ESE,112,1.6,2.2,62,0.00,,,0.00,WeatherCatV1.14B232,2013-03-10 20:22:00,
2013-03-10 16:27:00,71.4,57.7,30.15,South,180,1.1,1.1,62,0.00,,,0.00,WeatherCatV1.14B232,2013-03-10 20:27:00,
2013-03-10 16:32:00,71.2,57.7,30.15,SE,135,0.0,0.0,62,0.00,,,0.00,WeatherCatV1.14B232,2013-03-10 20:32:00,
2013-03-10 16:37:00,71.2,58.0,30.15,SE,135,0.0,1.8,63,0.00,,,0.00,WeatherCatV1.14B232,2013-03-10 20:37:00,
2013-03-10 16:42:00,71.2,58.0,30.15,SSE,157,1.8,1.8,63,0.00,,,0.00,WeatherCatV1.14B232,2013-03-10 20:42:00,
2013-03-10 16:47:00,71.1,57.8,30.14,South,180,1.6,1.6,63,0.00,,,0.00,WeatherCatV1.14B232,2013-03-10 20:47:00,
2013-03-10 16:52:00,70.9,57.6,30.15,SSE,157,0.9,1.6,63,0.00,,,0.00,WeatherCatV1.14B232,2013-03-10 20:52:00,
2013-03-10 16:57:00,70.7,57.9,30.14,SE,135,0.0,0.9,64,0.00,,,0.00,WeatherCatV1.14B232,2013-03-10 20:57:00,
2013-03-10 17:02:00,70.5,57.7,30.15,South,180,0.0,0.0,64,0.00,,,0.00,WeatherCatV1.14B232,2013-03-10 21:02:00,
2013-03-10 17:07:00,70.3,57.6,30.15,South,180,0.0,0.0,64,0.00,,,0.00,WeatherCatV1.14B232,2013-03-10 21:07:00,
2013-03-10 17:12:00,70.3,57.6,30.15,SE,135,0.9,0.9,64,0.00,,,0.00,WeatherCatV1.14B232,2013-03-10 21:12:00,
2013-03-10 17:17:00,70.3,57.8,30.15,SSE,157,0.0,0.0,65,0.00,,,0.00,WeatherCatV1.14B232,2013-03-10 21:17:00,
2013-03-10 17:22:00,70.3,58.0,30.15,SSE,157,1.1,1.1,65,0.00,,,0.00,WeatherCatV1.14B232,2013-03-10 21:22:00,
2013-03-10 17:27:00,70.2,57.8,30.15,SE,135,0.0,0.0,65,0.00,,,0.00,WeatherCatV1.14B232,2013-03-10 21:27:00,
2013-03-10 17:32:00,70.2,57.4,30.15,SSE,157,1.1,1.6,64,0.00,,,0.00,WeatherCatV1.14B232,2013-03-10 21:32:00,
2013-03-10 17:37:00,70.0,57.6,30.15,SSE,157,0.0,0.0,65,0.00,,,0.00,WeatherCatV1.14B232,2013-03-10 21:37:00,
2013-03-10 17:42:00,70.2,57.8,30.15,SE,135,0.0,0.0,65,0.00,,,0.00,WeatherCatV1.14B232,2013-03-10 21:42:00,
2013-03-10 17:47:00,70.0,57.6,30.15,SSE,157,0.0,1.1,65,0.00,,,0.00,WeatherCatV1.14B232,2013-03-10 21:47:00,
2013-03-10 17:52:00,70.0,57.6,30.15,SSE,157,0.0,0.0,65,0.00,,,0.00,WeatherCatV1.14B232,2013-03-10 21:52:00,
2013-03-10 17:57:00,70.0,57.6,30.15,NNE,22,0.0,0.0,65,0.00,,,0.00,WeatherCatV1.14B232,2013-03-10 21:57:00,
2013-03-10 18:02:00,70.0,57.5,30.15,SE,135,0.0,1.3,65,0.00,,,0.00,WeatherCatV1.14B232,2013-03-10 22:02:00,
2013-03-10 18:07:00,69.6,57.3,30.15,SE,135,0.0,0.9,65,0.00,,,0.00,WeatherCatV1.14B232,2013-03-10 22:07:00,
2013-03-10 18:12:00,69.6,57.3,30.15,SE,135,0.0,0.0,65,0.00,,,0.00,WeatherCatV1.14B232,2013-03-10 22:12:00,
2013-03-10 18:17:00,69.1,57.1,30.15,SE,135,0.7,0.7,66,0.00,,,0.00,WeatherCatV1.14B232,2013-03-10 22:17:00,
2013-03-10 18:22:00,69.1,57.2,30.15,SSE,157,0.0,0.0,66,0.00,,,0.00,WeatherCatV1.14B232,2013-03-10 22:22:00,
2013-03-10 18:27:00,68.5,56.7,30.15,SE,135,1.1,1.1,66,0.00,,,0.00,WeatherCatV1.14B232,2013-03-10 22:27:00,
2013-03-10 18:32:00,68.4,56.5,30.15,SE,135,0.0,0.0,67,0.00,,,0.00,WeatherCatV1.14B232,2013-03-10 22:32:00,
2013-03-10 18:37:00,68.2,56.8,30.15,SE,135,0.0,0.0,67,0.00,,,0.00,WeatherCatV1.14B232,2013-03-10 22:37:00,
2013-03-10 18:42:00,67.8,56.4,30.16,SSE,157,0.0,0.0,67,0.00,,,0.00,WeatherCatV1.14B232,2013-03-10 22:42:00,
2013-03-10 18:47:00,67.6,56.7,30.15,SE,135,0.0,0.0,68,0.00,,,0.00,WeatherCatV1.14B232,2013-03-10 22:47:00,
2013-03-10 18:52:00,67.3,56.3,30.15,SE,135,0.0,0.0,68,0.00,,,0.00,WeatherCatV1.14B232,2013-03-10 22:52:00,
2013-03-10 18:57:00,67.3,56.3,30.15,SSE,157,0.0,0.0,68,0.00,,,0.00,WeatherCatV1.14B232,2013-03-10 22:57:00,
2013-03-10 19:02:00,66.9,56.2,30.15,SE,135,0.0,0.0,68,0.00,,,0.00,WeatherCatV1.14B232,2013-03-10 23:02:00,
2013-03-10 19:07:00,66.7,55.8,30.15,SSE,157,0.0,0.0,68,0.00,,,0.00,WeatherCatV1.14B232,2013-03-10 23:07:00,
2013-03-10 19:12:00,66.7,56.2,30.16,South,180,0.0,0.0,69,0.00,,,0.00,WeatherCatV1.14B232,2013-03-10 23:12:00,
2013-03-10 19:17:00,66.4,55.9,30.16,SSE,157,0.0,0.0,69,0.00,,,0.00,WeatherCatV1.14B232,2013-03-10 23:17:00,
2013-03-10 19:22:00,66.0,55.5,30.15,SSE,157,0.0,0.0,69,0.00,,,0.00,WeatherCatV1.14B232,2013-03-10 23:22:00,
2013-03-10 19:27:00,66.0,56.0,30.15,SSE,157,0.0,0.0,70,0.00,,,0.00,WeatherCatV1.14B232,2013-03-10 23:27:00,
2013-03-10 19:32:00,65.7,55.6,30.15,SSE,157,0.0,0.0,70,0.00,,,0.00,WeatherCatV1.14B232,2013-03-10 23:32:00,
2013-03-10 19:37:00,65.3,55.7,30.16,SSE,157,0.0,0.0,71,0.00,,,0.00,WeatherCatV1.14B232,2013-03-10 23:37:00,
2013-03-10 19:42:00,65.1,55.5,30.15,SSE,157,0.0,0.0,71,0.00,,,0.00,WeatherCatV1.14B232,2013-03-10 23:42:00,
2013-03-10 19:47:00,64.9,55.5,30.15,SSE,157,0.0,0.0,71,0.00,,,0.00,WeatherCatV1.14B232,2013-03-10 23:47:00,
2013-03-10 19:52:00,64.8,55.5,30.15,SSE,157,0.0,0.0,72,0.00,,,0.00,WeatherCatV1.14B232,2013-03-10 23:52:00,
2013-03-10 19:57:00,64.6,55.4,30.16,SSE,157,0.0,0.0,72,0.00,,,0.00,WeatherCatV1.14B232,2013-03-10 23:57:00,
2013-03-10 20:02:00,64.2,55.4,30.16,SSE,157,0.0,0.0,73,0.00,,,0.00,WeatherCatV1.14B232,2013-03-11 00:02:00,
2013-03-10 20:07:00,64.0,55.2,30.16,SSE,157,0.0,0.0,73,0.00,,,0.00,WeatherCatV1.14B232,2013-03-11 00:07:00,
2013-03-10 20:12:00,64.0,55.2,30.16,SSE,157,0.0,0.0,73,0.00,,,0.00,WeatherCatV1.14B232,2013-03-11 00:12:00,
2013-03-10 20:17:00,63.7,54.9,30.16,SSE,157,0.0,0.0,73,0.00,,,0.00,WeatherCatV1.14B232,2013-03-11 00:17:00,
2013-03-10 20:22:00,63.7,55.2,30.16,SSE,157,0.0,0.0,74,0.00,,,0.00,WeatherCatV1.14B232,2013-03-11 00:22:00,
2013-03-10 20:27:00,63.5,55.0,30.16,SSE,157,0.0,0.0,74,0.00,,,0.00,WeatherCatV1.14B232,2013-03-11 00:27:00,
2013-03-10 20:32:00,63.3,55.2,30.16,SSE,157,0.0,0.0,75,0.00,,,0.00,WeatherCatV1.14B232,2013-03-11 00:32:00,
2013-03-10 20:37:00,63.1,55.0,30.16,SSE,157,0.0,0.0,75,0.00,,,0.00,WeatherCatV1.14B232,2013-03-11 00:37:00,
2013-03-10 20:42:00,63.1,55.0,30.16,SSE,157,0.0,0.0,75,0.00,,,0.00,WeatherCatV1.14B232,2013-03-11 00:42:00,
2013-03-10 20:47:00,63.0,55.2,30.16,SSE,157,0.0,0.0,76,0.00,,,0.00,WeatherCatV1.14B232,2013-03-11 00:47:00,
2013-03-10 20:52:00,62.8,55.0,30.16,SSE,157,0.0,0.0,76,0.00,,,0.00,WeatherCatV1.14B232,2013-03-11 00:52:00,
2013-03-10 20:57:00,62.8,55.0,30.16,SSE,157,0.0,0.0,76,0.00,,,0.00,WeatherCatV1.14B232,2013-03-11 00:57:00,
2013-03-10 21:02:00,62.4,55.1,30.15,SSE,157,0.0,0.0,77,0.00,,,0.00,WeatherCatV1.14B232,2013-03-11 01:02:00,
2013-03-10 21:07:00,62.4,55.1,30.16,SSE,157,0.0,0.0,77,0.00,,,0.00,WeatherCatV1.14B232,2013-03-11 01:07:00,
2013-03-10 21:12:00,62.4,55.1,30.16,SSE,157,0.0,0.0,77,0.00,,,0.00,WeatherCatV1.14B232,2013-03-11 01:12:00,
2013-03-10 21:17:00,62.2,54.9,30.16,SSE,157,0.0,0.0,77,0.00,,,0.00,WeatherCatV1.14B232,2013-03-11 01:17:00,
2013-03-10 21:22:00,62.2,54.9,30.16,SSE,157,0.0,0.0,77,0.00,,,0.00,WeatherCatV1.14B232,2013-03-11 01:22:00,
2013-03-10 21:27:00,62.2,54.9,30.16,SSE,157,0.0,0.0,77,0.00,,,0.00,WeatherCatV1.14B232,2013-03-11 01:27:00,
2013-03-10 21:32:00,62.1,54.7,30.16,SSE,157,0.0,0.0,77,0.00,,,0.00,WeatherCatV1.14B232,2013-03-11 01:32:00,
2013-03-10 21:37:00,61.9,54.9,30.16,SSE,157,0.0,0.0,78,0.00,,,0.00,WeatherCatV1.14B232,2013-03-11 01:37:00,
2013-03-10 21:42:00,61.9,54.9,30.17,SSE,157,0.0,0.0,78,0.00,,,0.00,WeatherCatV1.14B232,2013-03-11 01:42:00,
2013-03-10 21:47:00,61.7,54.8,30.17,SSE,157,0.0,0.0,78,0.00,,,0.00,WeatherCatV1.14B232,2013-03-11 01:47:00,
2013-03-10 21:52:00,61.7,54.8,30.16,SSE,157,0.0,0.0,78,0.00,,,0.00,WeatherCatV1.14B232,2013-03-11 01:52:00,
2013-03-10 21:57:00,61.7,55.1,30.16,SSE,157,0.0,0.0,79,0.00,,,0.00,WeatherCatV1.14B232,2013-03-11 01:57:00,
2013-03-10 22:02:00,61.5,55.0,30.16,SSE,157,0.0,0.0,79,0.00,,,0.00,WeatherCatV1.14B232,2013-03-11 02:02:00,
2013-03-10 22:07:00,61.5,55.0,30.16,SSE,157,0.0,0.0,79,0.00,,,0.00,WeatherCatV1.14B232,2013-03-11 02:07:00,
2013-03-10 22:12:00,61.5,55.0,30.16,SSE,157,0.0,0.0,79,0.00,,,0.00,WeatherCatV1.14B232,2013-03-11 02:12:00,
2013-03-10 22:17:00,61.5,55.3,30.16,SSE,157,0.0,0.0,80,0.00,,,0.00,WeatherCatV1.14B232,2013-03-11 02:17:00,
2013-03-10 22:22:00,61.3,55.2,30.16,SSE,157,0.0,0.0,80,0.00,,,0.00,WeatherCatV1.14B232,2013-03-11 02:22:00,
2013-03-10 22:27:00,61.3,55.2,30.16,SSE,157,0.0,0.0,80,0.00,,,0.00,WeatherCatV1.14B232,2013-03-11 02:27:00,
2013-03-10 22:32:00,61.3,55.2,30.16,SSE,157,0.0,0.0,81,0.00,,,0.00,WeatherCatV1.14B232,2013-03-11 02:32:00,
2013-03-10 22:37:00,61.2,55.3,30.16,SSE,157,0.0,0.0,81,0.00,,,0.00,WeatherCatV1.14B232,2013-03-11 02:37:00,
2013-03-10 22:42:00,61.2,55.3,30.16,SSE,157,0.0,0.0,81,0.00,,,0.00,WeatherCatV1.14B232,2013-03-11 02:42:00,
2013-03-10 22:47:00,61.2,55.3,30.16,SE,135,0.0,0.0,81,0.00,,,0.00,WeatherCatV1.14B232,2013-03-11 02:47:00,
2013-03-10 22:52:00,61.2,55.3,30.16,SSE,157,0.0,0.0,81,0.00,,,0.00,WeatherCatV1.14B232,2013-03-11 02:52:00,
2013-03-10 22:57:00,61.2,55.3,30.16,SSE,157,0.0,0.0,81,0.00,,,0.00,WeatherCatV1.14B232,2013-03-11 02:57:00,
2013-03-10 23:02:00,61.2,55.3,30.16,SSE,157,0.0,0.0,81,0.00,,,0.00,WeatherCatV1.14B232,2013-03-11 03:02:00,
2013-03-10 23:07:00,61.0,55.2,30.16,SE,135,0.0,0.0,81,0.00,,,0.00,WeatherCatV1.14B232,2013-03-11 03:07:00,
2013-03-10 23:12:00,61.0,55.2,30.16,SE,135,0.0,0.0,81,0.00,,,0.00,WeatherCatV1.14B232,2013-03-11 03:12:00,
2013-03-10 23:17:00,61.0,55.2,30.16,SSE,157,0.0,0.0,81,0.00,,,0.00,WeatherCatV1.14B232,2013-03-11 03:17:00,
2013-03-10 23:22:00,60.8,55.0,30.15,SSE,157,0.0,0.0,81,0.00,,,0.00,WeatherCatV1.14B232,2013-03-11 03:22:00,
2013-03-10 23:27:00,60.6,54.8,30.16,SSE,157,0.0,0.0,81,0.00,,,0.00,WeatherCatV1.14B232,2013-03-11 03:27:00,
2013-03-10 23:32:00,60.6,54.8,30.16,SSE,157,0.0,0.0,81,0.00,,,0.00,WeatherCatV1.14B232,2013-03-11 03:32:00,
2013-03-10 23:37:00,60.6,54.8,30.15,SSE,157,0.0,0.0,81,0.00,,,0.00,WeatherCatV1.14B232,2013-03-11 03:37:00,
2013-03-10 23:42:00,60.6,54.8,30.16,SSE,157,0.0,0.0,81,0.00,,,0.00,WeatherCatV1.14B232,2013-03-11 03:42:00,
2013-03-10 23:47:00,60.4,54.6,30.16,SSE,157,0.0,0.0,81,0.00,,,0.00,WeatherCatV1.14B232,2013-03-11 03:47:00,
2013-03-10 23:52:00,60.4,54.6,30.15,SSE,157,0.0,0.0,81,0.00,,,0.00,WeatherCatV1.14B232,2013-03-11 03:52:00,
2013-03-10 23:57:00,60.4,54.6,30.15,SSE,157,0.0,0.0,81,0.00,,,0.00,WeatherCatV1.14B232,2013-03-11 03:57:00,